Location: Gleizolles
(44.4833°N, 6.7667°E)
Time: 04:40:14
(UTC+00:00)

Vanguard 2 - Pass Details

Date: 03 July 2024
Orbit: 552 x 2913 km, 32.9° (Epoch: 17 July)

Event Time Altitude Azimuth Distance (km) Brightness Sun altitude
Exits shadow 00:04:41 13° 136° (SE) 3,509 10.5 -22.3°
Maximum altitude 00:05:14 13° 133° (SE) 3,560 10.6 -22.3°
Drops below altitude 10° 00:09:49 10° 108° (ESE) 4,270 11.2 -22.2°
Sets 00:16:45 0° 87° (E) 5,857 12.2 -22.0°
